Location: Boley
(53.1150°N, 8.2269°W)
Time: 23:13:56
(UTC+00:00)

Cosmos 1354 Rocket - Pass Details

Date: 15 May 2026
Orbit: 761 x 778 km, 74.0° (Epoch: 11 June)

Event Time Altitude Azimuth Distance (km) Brightness Sun altitude
Rises 21:55:58 0° 334° (NNW) 3,251 9.2 -10.6°
Reaches altitude 10° 21:58:23 10° 338° (NNW) 2,318 7.9 -10.8°
Maximum altitude 22:03:37 66° 60° (ENE) 836 4.2 -11.3°
Enters shadow 22:07:47 16° 141° (SE) 1,913 5.4 -11.6°
